Voltar ao catálogo

STARLINK-5440

AtivoComunicaçõesVLEO
NORAD 54785·PAYLOAD·🇺🇸 United States

Lançado Dec 17, 2022 de Cape Canaveral Space Force Station

Loading…

Próximas Passagens (próximas 24 horas)

TLE

AtualizadoSource: CelesTrak SupGP

Época: Sep 14, 2026, 20:32 UTC

1 54785C 22175AD  26257.85604167 -.00012315  00000+0 -36392-3 0  2571
2 54785  53.1579 206.0777 0001360  97.4309  14.0088 15.34389700    14

Acompanhe STARLINK-5440 em tempo real com AllMySat

Download on the App Store